| time (UTC) | temp C | wind direction | speed KPH | gust KPH | rain 1hr cm | rain 24hr cm | rain mn cm | humidity % | barometer mb |
| 20260510100055 | 10 | 305 | 0.0 | 1.6 | 0.00 | 0.86 | 0.13 | 97 | 1009.4 |
| 20260510094553 | 10 | 304 | 0.0 | 0.0 | 0.00 | 0.86 | 0.13 | 96 | 1009.1 |
| 20260510093051 | 10 | 304 | 0.0 | 0.0 | 0.00 | 0.86 | 0.13 | 97 | 1008.6 |
| 20260510091551 | 10 | 304 | 0.0 | 0.0 | 0.00 | 0.86 | 0.13 | 96 | 1008.8 |
| 20260510090052 | 10 | 304 | 0.0 | 0.0 | 0.00 | 0.86 | 0.13 | 96 | 1008.5 |
| 20260510084548 | 10 | 304 | 0.0 | 0.0 | 0.00 | 0.86 | 0.13 | 96 | 1008.5 |
| 20260510083048 | 10 | 306 | 0.0 | 0.0 | 0.00 | 0.86 | 0.13 | 96 | 1008.8 |
| 20260510081555 | 10 | 304 | 0.0 | 0.0 | 0.00 | 0.86 | 0.13 | 96 | 1008.6 |
| 20260510080048 | 10 | 307 | 0.0 | 1.6 | 0.00 | 0.86 | 0.13 | 96 | 1008.6 |
| 20260510074545 | 10 | 212 | 0.0 | 3.2 | 0.03 | 0.86 | 0.13 | 96 | 1008.0 |
| 20260510073044 | 10 | 210 | 0.0 | 0.0 | 0.03 | 0.86 | 0.13 | 96 | 1008.5 |
| 20260510071542 | 10 | 210 | 0.0 | 1.6 | 0.03 | 0.86 | 0.13 | 96 | 1009.1 |
| 20260510070046 | 11 | 255 | 0.0 | 4.8 | 0.13 | 0.86 | 0.13 | 96 | 1009.3 |
| 20260510064540 | 11 | 178 | 0.0 | 8.0 | 0.10 | 0.84 | 0.10 | 96 | 1009.3 |
| 20260510063040 | 11 | 139 | 1.6 | 6.4 | 0.10 | 0.84 | 0.10 | 96 | 1009.4 |
| 20260510061538 | 11 | 268 | 0.0 | 1.6 | 0.10 | 0.84 | 0.10 | 96 | 1009.3 |
| 20260510060036 | 11 | 107 | 0.0 | 8.0 | 0.00 | 0.71 | 0.00 | 96 | 1009.1 |
| 20260510054542 | 10 | 179 | 0.0 | 9.7 | 0.00 | 0.71 | 0.00 | 96 | 1009.2 |
| 20260510053034 | 10 | 231 | 0.0 | 6.4 | 0.00 | 0.71 | 0.00 | 96 | 1008.9 |
| 20260510051535 | 10 | 203 | 0.0 | 4.8 | 0.00 | 0.71 | 0.00 | 96 | 1008.7 |
| 20260510050038 | 10 | 211 | 0.0 | 3.2 | 0.00 | 0.71 | 0.00 | 96 | 1008.7 |
| 20260510044536 | 10 | 257 | 0.0 | 1.6 | 0.00 | 0.71 | 0.00 | 96 | 1008.9 |
| 20260510043030 | 10 | 205 | 0.0 | 6.4 | 0.00 | 0.71 | 0.00 | 97 | 1008.9 |
| 20260510041530 | 10 | 67 | 0.0 | 0.0 | 0.00 | 0.71 | 0.00 | 96 | 1008.9 |
| 20260510040026 | 10 | 67 | 0.0 | 0.0 | 0.00 | 0.71 | 0.00 | 96 | 1008.9 |
| 20260510034525 | 10 | 67 | 0.0 | 0.0 | 0.00 | 0.71 | 0.71 | 96 | 1008.9 |
| 20260510033024 | 10 | 68 | 0.0 | 3.2 | 0.00 | 0.71 | 0.71 | 96 | 1008.7 |
| 20260510031535 | 10 | 314 | 0.0 | 1.6 | 0.00 | 0.71 | 0.71 | 97 | 1008.7 |
| 20260510030030 | 10 | 313 | 0.0 | 0.0 | 0.00 | 0.71 | 0.71 | 96 | 1009.0 |
| 20260510024522 | 10 | 312 | 0.0 | 0.0 | 0.00 | 0.71 | 0.71 | 96 | 1009.0 |
| 20260510023022 | 10 | 312 | 0.0 | 0.0 | 0.00 | 0.71 | 0.71 | 96 | 1009.1 |
| 20260510021529 | 10 | 312 | 0.0 | 0.0 | 0.00 | 0.71 | 0.71 | 96 | 1009.0 |
| 20260510020021 | 10 | 312 | 0.0 | 0.0 | 0.00 | 0.71 | 0.71 | 96 | 1009.0 |
| 20260510014520 | 10 | 312 | 0.0 | 0.0 | 0.00 | 0.71 | 0.71 | 96 | 1009.0 |
| 20260510013019 | 10 | 312 | 0.0 | 0.0 | 0.00 | 0.71 | 0.71 | 96 | 1009.1 |
| 20260510011519 | 10 | 312 | 0.0 | 0.0 | 0.00 | 0.71 | 0.71 | 96 | 1008.9 |
| 20260510010019 | 10 | 312 | 0.0 | 0.0 | 0.00 | 0.71 | 0.71 | 96 | 1009.1 |
| 20260510004518 | 10 | 312 | 0.0 | 0.0 | 0.00 | 0.71 | 0.71 | 96 | 1008.9 |
| 20260510003018 | 10 | 312 | 0.0 | 0.0 | 0.00 | 0.71 | 0.71 | 96 | 1008.9 |
| 20260510001516 | 10 | 312 | 0.0 | 0.0 | 0.00 | 0.71 | 0.71 | 96 | 1008.7 |
| 20260510000020 | 10 | 312 | 0.0 | 0.0 | 0.00 | 0.71 | 0.71 | 95 | 1008.3 |
| 20260509234516 | 10 | 312 | 0.0 | 0.0 | 0.00 | 0.71 | 0.71 | 95 | 1008.4 |
| 20260509233015 | 10 | 312 | 0.0 | 0.0 | 0.00 | 0.71 | 0.71 | 96 | 1008.3 |
| 20260509231512 | 10 | 312 | 0.0 | 0.0 | 0.00 | 0.71 | 0.71 | 96 | 1008.1 |
| 20260509230011 | 10 | 312 | 0.0 | 0.0 | 0.00 | 0.71 | 0.71 | 96 | 1008.0 |
| 20260509224509 | 10 | 312 | 0.0 | 0.0 | 0.00 | 0.71 | 0.71 | 96 | 1008.2 |
| 20260509223015 | 10 | 312 | 0.0 | 0.0 | 0.00 | 0.71 | 0.71 | 95 | 1008.1 |
| 20260509221506 | 10 | 312 | 0.0 | 0.0 | 0.00 | 0.71 | 0.71 | 96 | 1008.2 |
| 20260509220006 | 10 | 312 | 0.0 | 0.0 | 0.03 | 0.71 | 0.71 | 96 | 1008.4 |
| 20260509214500 | 10 | 312 | 0.0 | 0.0 | 0.03 | 0.71 | 0.71 | 95 | 1008.6 |
| 20260509213100 | 10 | 312 | 0.0 | 1.6 | 0.03 | 0.71 | 0.71 | 95 | 1008.7 |
| 20260509211601 | 10 | 311 | 0.0 | 0.0 | 0.05 | 0.71 | 0.71 | 95 | 1008.8 |
| 20260509210105 | 10 | 311 | 0.0 | 0.0 | 0.03 | 0.71 | 0.71 | 95 | 1008.8 |
| 20260509204551 | 10 | 311 | 0.0 | 0.0 | 0.03 | 0.71 | 0.71 | 95 | 1009.0 |
| 20260509203051 | 10 | 53 | 0.0 | 0.0 | 0.03 | 0.71 | 0.71 | 95 | 1009.1 |
| 20260509201546 | 9 | 53 | 0.0 | 0.0 | 0.00 | 0.71 | 0.69 | 94 | 1009.4 |
| 20260509200048 | 9 | 54 | 0.0 | 0.0 | 0.00 | 0.71 | 0.69 | 94 | 1009.6 |
| 20260509194537 | 9 | 54 | 0.0 | 0.0 | 0.00 | 0.76 | 0.69 | 94 | 1009.7 |
| 20260509193034 | 9 | 54 | 0.0 | 0.0 | 0.00 | 0.76 | 0.69 | 94 | 1009.8 |
| 20260509191535 | 9 | 54 | 0.0 | 0.0 | 0.03 | 0.76 | 0.69 | 93 | 1009.8 |
| 20260509190039 | 9 | 55 | 0.0 | 0.0 | 0.05 | 0.76 | 0.69 | 94 | 1010.0 |
| 20260509184536 | 9 | 55 | 0.0 | 0.0 | 0.08 | 0.76 | 0.69 | 94 | 1010.0 |
| 20260509183028 | 8 | 55 | 0.0 | 0.0 | 0.10 | 0.76 | 0.69 | 93 | 1010.1 |
| 20260509181523 | 8 | 55 | 0.0 | 0.0 | 0.10 | 0.71 | 0.66 | 94 | 1010.2 |
| 20260509180026 | 8 | 55 | 0.0 | 0.0 | 0.08 | 0.71 | 0.64 | 93 | 1010.3 |
| 20260509174523 | 8 | 55 | 0.0 | 1.6 | 0.05 | 0.69 | 0.61 | 93 | 1010.4 |
| 20260509173050 | 8 | 56 | 0.0 | 0.0 | 0.05 | 0.66 | 0.58 | 93 | 1010.4 |
| 20260509171528 | 8 | 56 | 0.0 | 0.0 | 0.05 | 0.64 | 0.56 | 93 | 1010.5 |
| 20260509170018 | 8 | 56 | 0.0 | 0.0 | 0.08 | 0.64 | 0.56 | 93 | 1010.7 |
| 20260509164517 | 8 | 56 | 0.0 | 0.0 | 0.13 | 0.64 | 0.56 | 93 | 1010.8 |
| 20260509163016 | 7 | 56 | 0.0 | 0.0 | 0.13 | 0.61 | 0.53 | 92 | 1011.2 |
| 20260509161509 | 7 | 56 | 0.0 | 0.0 | 0.15 | 0.58 | 0.51 | 92 | 1011.4 |
| 20260509160009 | 7 | 358 | 0.0 | 0.0 | 0.18 | 0.56 | 0.48 | 93 | 1011.8 |
| 20260509154503 | 7 | 359 | 0.0 | 0.0 | 0.20 | 0.51 | 0.43 | 92 | 1011.9 |
| 20260509153005 | 7 | 359 | 0.0 | 0.0 | 0.23 | 0.48 | 0.41 | 91 | 1011.9 |
| 20260509151501 | 7 | 359 | 0.0 | 0.0 | 0.20 | 0.43 | 0.36 | 92 | 1012.1 |
| 20260509150100 | 7 | 359 | 0.0 | 0.0 | 0.18 | 0.38 | 0.30 | 91 | 1012.2 |
| 20260509144559 | 7 | 359 | 0.0 | 0.0 | 0.15 | 0.30 | 0.23 | 90 | 1012.1 |
| 20260509143107 | 7 | 359 | 0.0 | 0.0 | 0.13 | 0.25 | 0.18 | 91 | 1012.1 |
| 20260509141557 | 7 | 359 | 0.0 | 0.0 | 0.15 | 0.23 | 0.15 | 91 | 1012.1 |
| 20260509140056 | 6 | 359 | 0.0 | 0.0 | 0.13 | 0.20 | 0.13 | 91 | 1012.1 |
| 20260509134555 | 6 | 359 | 0.0 | 0.0 | 0.08 | 0.15 | 0.08 | 90 | 1012.2 |
| 20260509133055 | 6 | 359 | 0.0 | 0.0 | 0.05 | 0.13 | 0.05 | 89 | 1012.2 |
| 20260509131602 | 6 | 359 | 0.0 | 0.0 | 0.00 | 0.08 | 0.00 | 88 | 1012.2 |
| 20260509130124 | 6 | 56 | 0.0 | 0.0 | 0.00 | 0.08 | 0.00 | 88 | 1012.3 |
| 20260509124550 | 6 | 56 | 0.0 | 0.0 | 0.00 | 0.08 | 0.00 | 87 | 1012.1 |
| 20260509123116 | 6 | 56 | 0.0 | 0.0 | 0.00 | 0.08 | 0.00 | 85 | 1012.3 |
| 20260509121549 | 6 | 56 | 0.0 | 0.0 | 0.00 | 0.08 | 0.00 | 85 | 1012.3 |
| 20260509120050 | 5 | 56 | 0.0 | 0.0 | 0.00 | 0.08 | 0.00 | 84 | 1012.6 |
| 20260509114603 | 5 | 56 | 0.0 | 0.0 | 0.00 | 0.08 | 0.00 | 88 | 1012.6 |
| 20260509113039 | 4 | 37 | 0.0 | 0.0 | 0.00 | 0.08 | 0.00 | 89 | 1012.7 |
| 20260509111536 | 3 | 37 | 0.0 | 0.0 | 0.00 | 0.08 | 0.00 | 91 | 1012.5 |
| 20260509110037 | 2 | 37 | 0.0 | 0.0 | 0.00 | 0.08 | 0.00 | 92 | 1012.4 |
| 20260509104535 | 2 | 25 | 0.0 | 0.0 | 0.00 | 0.08 | 0.00 | 92 | 1012.5 |
| 20260509103034 | 1 | 273 | 0.0 | 0.0 | 0.00 | 0.08 | 0.00 | 92 | 1012.6 |
| 20260509101550 | 1 | 273 | 0.0 | 0.0 | 0.00 | 0.08 | 0.00 | 91 | 1012.6 |